RH
18 35 58 73 78 78 76 74 74 74 75 76 76 76 76 75 74 72 71 72 74 76 78 80 81 80 78 76 74 71 69 71 74 75 72 69 65 60 56 52 50 47 46 45 44 43 42 43 43 43 43 42 40 38 37 38 42 45 47 56 61 62 62 61 62 65 70 74 76 76 74 76 78 78 76 73 71 70 72 76 77 78 79 79 79 77
12 25 46 66 76 79 78 77 76 74 74 76 76 76 76 76 74 72 70 69 70 73 77 80 81 81 80 79 77 74 71 70 71 73 75 72 67 61 55 51 48 46 44 43 42 42 42 42 42 42 43 42 41 39 38 40 42 46 49 56 59 58 57 57 60 66 74 78 79 78 78 79 80 80 78 76 76 76 79 80 80 80 80 81 81 80
9 17 34 57 72 79 79 79 78 77 75 75 76 76 75 76 75 73 72 68 66 69 74 78 80 81 82 81 79 76 72 69 68 70 74 74 70 64 56 51 47 44 42 42 41 40 40 40 40 41 42 42 42 41 40 40 43 47 50 56 57 56 53 56 64 73 81 81 79 76 76 76 78 79 80 79 80 82 84 84 82 81 80 81 81 81
7 12 24 46 65 77 80 79 79 78 77 76 76 76 74 76 76 74 71 64 62 65 70 75 78 80 81 81 80 78 74 70 68 70 74 76 74 68 60 53 48 44 42 41 40 40 40 40 40 40 41 40 41 41 41 40 42 46 52 55 56 54 52 58 68 78 82 79 76 73 72 72 74 76 79 79 81 83 84 85 85 84 81 80 78 78
8 8 16 36 57 74 80 79 79 79 79 77 77 77 74 74 75 74 68 63 60 62 68 73 77 79 80 80 80 79 76 73 71 71 73 76 75 71 64 56 50 46 42 41 40 40 39 40 40 40 41 42 42 42 42 41 43 46 52 54 55 54 53 60 69 76 78 76 73 70 68 70 72 74 74 78 79 80 83 84 84 84 84 81 79 78
8 7 10 26 47 67 79 79 78 78 79 78 78 77 76 76 76 72 66 63 61 62 68 73 76 77 79 78 79 79 79 76 74 73 74 76 77 74 68 61 54 49 45 43 41 40 39 40 40 41 42 42 42 42 42 42 45 48 51 52 52 54 58 63 66 68 69 69 66 64 66 68 72 74 74 76 77 78 82 83 84 84 84 82 81 79
9 7 8 19 38 58 76 78 78 77 78 79 80 79 77 78 77 75 68 60 60 64 69 73 75 76 79 79 78 79 80 80 78 78 78 79 78 76 72 65 58 53 48 46 43 42 40 40 41 42 43 43 44 43 42 44 46 48 49 48 50 54 62 65 66 65 65 64 63 62 64 68 71 74 77 78 77 78 79 80 82 82 82 82 80 78
10 8 6 14 29 49 70 77 78 77 78 80 80 80 78 77 77 77 74 68 65 65 68 72 76 78 79 79 79 79 80 81 81 81 80 80 79 77 74 69 63 58 53 50 47 44 42 42 42 44 45 46 46 45 44 45 46 47 47 48 48 50 57 61 64 65 65 64 62 62 65 68 72 76 80 82 81 79 78 77 77 77 76 78 78 77
11 8 6 10 22 40 63 74 77 76 76 80 81 81 81 78 77 77 78 78 74 70 67 72 76 79 80 78 78 79 79 80 81 81 80 80 78 77 75 72 67 62 58 55 52 49 46 46 46 47 49 50 50 49 48 48 48 47 46 45 44 45 49 54 58 60 62 61 60 61 65 69 73 77 82 84 84 83 82 78 77 76 76 76 76 76
12 10 7 8 16 32 54 71 76 76 74 79 81 81 82 80 78 77 77 78 78 76 72 73 76 79 79 78 77 77 76 77 78 79 79 78 78 76 74 72 69 66 62 59 56 53 51 50 51 53 55 56 56 55 54 52 51 50 48 46 44 43 44 49 52 54 56 58 59 60 64 69 72 76 80 82 84 84 84 83 82 80 78 77 76 76
12 10 8 7 12 25 46 66 74 76 71 78 80 80 80 81 80 78 76 76 77 78 77 76 76 76 76 75 74 74 74 74 74 76 77 78 77 76 74 73 70 68 64 62 58 56 54 54 56 58 60 62 63 64 63 60 58 55 53 50 48 46 44 46 48 50 52 55 59 62 65 66 68 70 72 76 80 82 83 84 84 84 82 81 80 78
12 10 8 7 10 18 36 58 71 74 70 77 80 81 80 80 80 79 75 75 76 77 76 76 74 72 71 71 71 71 70 71 72 73 75 76 77 76 76 74 72 69 66 63 60 58 56 56 58 60 63 67 70 72 71 68 65 61 58 55 52 50 46 46 47 49 51 56 59 61 62 62 62 63 66 70 74 78 82 83 83 83 85 84 82 79
11 10 9 7 8 13 27 50 66 74 70 75 79 82 80 78 79 79 77 76 76 76 75 73 70 67 65 64 65 65 66 67 68 70 73 74 76 76 76 76 74 72 70 66 62 60 57 56 58 60 64 69 73 76 76 73 70 66 63 60 56 53 50 49 49 50 52 57 59 59 58 56 57 60 65 68 71 74 77 80 81 81 83 82 80 78
10 10 9 8 7 10 19 42 61 72 70 73 78 81 80 78 77 77 79 79 78 76 74 71 68 65 63 63 63 63 63 65 67 70 72 73 74 75 76 76 76 75 73 70 66 62 59 57 57 58 62 68 72 75 76 74 72 69 66 63 60 57 54 53 52 54 57 60 60 59 56 53 53 56 62 66 69 71 72 76 78 79 79 78 78 79
10 9 8 8 6 8 14 33 53 67 69 70 76 80 80 78 78 78 79 79 80 80 77 74 71 69 67 67 66 66 66 66 68 70 72 72 73 74 75 76 76 76 76 73 70 66 62 58 58 58 61 66 70 73 74 74 73 71 69 66 63 60 57 56 56 56 58 60 61 60 58 54 53 55 59 63 66 68 68 69 72 76 78 80 81 82
10 9 8 7 6 6 9 24 44 62 69 68 73 79 81 80 78 78 77 77 78 80 81 80 78 76 75 74 72 72 72 71 72 72 73 74 74 74 75 76 77 78 78 76 74 70 66 62 60 59 60 64 68 71 73 74 73 72 70 68 65 62 59 57 57 58 59 60 61 61 59 57 55 55 58 62 64 65 64 66 68 72 76 80 82 84
11 9 8 7 6 6 6 17 35 54 67 66 69 75 81 79 78 76 76 76 77 79 81 82 82 81 81 80 79 78 76 76 76 76 77 77 77 76 75 76 77 78 78 78 76 74 70 66 64 63 62 64 67 70 73 74 74 73 71 68 66 64 61 58 57 58 59 60 61 60 60 59 58 58 59 60 60 61 62 65 68 72 76 78 81 84
11 10 8 7 6 5 4 11 26 46 64 64 66 70 80 78 77 76 76 76 77 78 80 81 82 82 82 82 81 80 78 79 80 80 82 81 80 78 76 76 76 77 78 78 77 76 74 71 69 67 66 67 68 70 72 74 74 73 72 69 66 65 63 60 58 58 58 60 60 60 60 60 59 59 58 58 57 58 61 65 68 71 74 76 80 84
11 10 8 7 6 5 4 7 19 36 57 62 64 68 78 79 79 78 76 77 77 77 78 80 81 82 82 82 81 80 80 80 81 82 83 83 82 81 79 78 78 78 78 78 77 76 76 74 72 71 70 70 70 71 72 73 73 72 71 70 68 66 64 62 60 60 60 61 61 61 62 60 59 59 58 55 55 58 61 64 68 71 74 77 80 82
12 10 9 8 6 5 4 5 12 27 48 58 62 66 74 79 80 79 78 78 77 76 76 78 80 81 82 82 82 81 81 82 82 82 83 83 83 82 81 80 79 79 79 78 77 77 76 76 75 74 74 72 72 72 72 72 72 72 70 69 68 66 65 64 62 62 62 65 65 64 66 61 60 60 58 55 56 58 62 64 67 70 74 78 80 82
13 12 10 8 7 6 4 4 8 19 38 54 61 64 69 76 79 80 77 75 74 74 74 77 80 81 81 81 80 81 82 82 82 82 83 82 83 83 82 81 80 80 80 79 78 78 77 76 76 77 77 76 76 74 74 74 74 72 70 69 68 66 65 64 63 64 66 67 66 66 66 64 62 61 58 57 58 61 64 66 68 70 72 75 78 80
15 13 12 10 8 6 4 4 5 12 29 48 59 64 66 73 78 80 79 76 74 74 74 76 78 80 81 81 82 82 82 82 82 82 82 82 82 83 82 82 81 81 80 80 79 79 78 78 78 79 81 82 82 81 80 79 78 76 73 71 68 66 65 64 64 64 67 68 67 65 65 64 63 62 60 60 62 64 66 69 70 71 71 72 72 73
17 16 15 13 10 8 6 4 4 9 20 40 54 62 64 71 77 80 80 77 75 74 74 73 76 79 81 81 81 81 81 82 82 82 82 82 82 82 82 82 82 81 80 80 80 80 80 80 80 81 82 82 83 83 84 83 82 81 78 75 71 68 64 64 65 66 67 68 66 66 64 64 63 62 61 61 62 65 67 70 71 71 71 70 71 72
20 20 20 18 14 11 9 7 6 7 14 32 48 60 64 70 76 80 80 77 74 73 73 73 74 77 80 81 81 81 81 81 81 81 82 82 82 82 82 81 81 80 80 79 79 79 80 80 81 81 81 82 82 82 82 82 82 82 82 79 74 70 66 66 68 69 69 69 68 67 66 66 65 65 64 64 64 65 67 68 68 68 68 70 72 74
24 24 24 23 20 16 13 10 8 8 10 24 41 56 64 69 75 80 80 78 75 73 72 70 71 74 78 79 80 80 81 80 80 80 81 81 82 82 82 80 80 80 79 78 78 78 79 80 80 80 80 80 80 80 80 81 81 82 82 80 76 73 72 73 72 72 72 73 72 71 70 69 68 68 68 68 67 66 66 66 66 66 68 70 74 76
29 29 30 28 26 22 18 15 12 10 10 18 32 49 61 66 73 78 80 78 75 73 72 68 68 70 76 78 79 80 80 80 80 81 81 81 81 81 81 79 79 79 78 78 77 77 78 79 80 79 79 79 78 78 78 78 79 80 80 78 77 78 79 79 78 77 77 77 77 76 75 73 72 72 72 72 71 69 66 66 65 66 68 71 74 76
34 34 34 34 32 29 25 21 18 15 13 16 26 40 55 64 70 76 79 78 75 73 73 68 66 69 74 76 78 79 80 80 81 81 80 80 80 80 80 79 80 80 79 78 77 77 78 79 79 78 78 77 77 76 76 76 76 76 77 76 77 79 80 80 80 80 80 80 79 78 77 76 74 74 75 74 73 71 69 68 67 67 69 72 74 77
40 39 38 38 36 34 31 27 23 20 18 18 24 34 47 58 67 74 78 77 76 74 72 69 69 72 74 76 78 78 79 80 80 80 80 80 80 80 78 79 80 80 80 79 78 77 78 78 78 78 77 76 76 75 74 74 74 74 74 75 76 77 78 78 78 79 79 79 78 77 76 74 74 74 74 74 73 72 70 68 68 68 70 71 73 74
44 43 42 41 40 38 35 32 28 25 23 22 24 30 40 52 62 70 76 77 76 75 73 72 73 74 75 76 76 77 78 78 79 79 80 80 79 78 77 78 79 80 81 80 80 79 79 78 78 77 76 75 74 74 73 72 72 72 72 72 73 74 74 75 76 76 76 76 76 75 74 73 73 73 73 71 70 70 68 68 67 67 68 68 70 71
47 46 45 43 42 40 38 35 32 31 29 28 29 31 36 46 57 66 73 76 76 76 75 76 76 76 75 75 75 76 77 77 77 78 79 80 78 77 76 76 76 78 80 81 81 80 80 78 78 76 76 75 74 73 72 71 70 70 69 70 70 70 70 71 72 73 73 73 73 73 72 71 70 69 68 66 66 65 64 63 64 64 64 64 65 66
50 49 47 45 43 40 38 37 37 36 35 35 35 36 38 44 53 62 69 72 74 76 77 78 78 77 76 76 75 75 76 76 76 77 78 78 78 76 75 74 74 76 78 80 80 80 79 78 77 76 74 74 74 73 72 70 69 68 68 67 67 66 67 68 68 68 69 69 69 69 68 68 66 65 64 62 60 60 59 59 59 60 60 60 61 61
54 52 49 47 44 41 39 40 41 42 40 42 43 45 45 47 52 58 65 70 73 76 78 78 78 78 77 76 76 75 75 76 76 76 76 77 77 76 74 72 73 74 76 77 78 78 78 77 76 74 73 74 73 73 71 69 68 66 66 65 64 64 64 64 64 64 64 65 65 65 64 63 62 60 60 58 56 55 54 55 56 57 58 59 60 61
60 57 53 49 45 42 40 43 47 49 48 49 52 55 56 52 53 57 64 68 72 76 78 79 79 78 77 76 75 74 75 75 75 74 74 75 76 76 73 72 72 73 74 74 74 76 76 75 74 73 72 72 72 72 71 68 66 65 64 63 62 62 61 60 60 61 61 61 60 60 59 58 57 56 54 54 53 53 53 54 56 57 59 60 61 62
66 62 58 52 48 46 47 52 56 58 58 60 62 64 65 60 58 59 63 68 72 76 78 78 79 78 77 76 74 74 74 73 73 74 73 74 75 75 73 72 72 72 72 71 72 72 73 72 72 72 72 72 72 72 70 68 66 64 62 61 60 59 58 58 58 58 58 58 57 56 56 54 53 53 53 52 52 54 54 56 58 60 61 62 62 64
68 66 61 56 54 54 58 62 66 66 66 68 69 70 69 66 63 62 64 68 72 76 78 78 78 78 77 74 73 72 72 70 70 70 71 72 74 74 73 72 71 70 70 69 68 68 69 69 69 70 70 71 72 72 70 68 66 64 62 60 58 57 56 55 55 55 55 54 54 54 53 52 51 51 52 50 51 52 53 56 59 62 62 63 63 64
70 68 64 60 60 62 68 69 70 71 71 72 72 72 70 68 66 64 66 70 73 76 78 78 78 78 77 74 71 69 69 68 68 68 68 69 71 72 73 71 70 70 68 67 66 65 65 65 65 66 68 69 70 70 70 68 66 64 62 60 58 56 54 53 52 52 51 51 51 50 50 50 49 49 49 48 49 49 49 51 54 57 58 60 61 62
72 71 68 64 64 66 70 70 71 72 72 73 73 72 70 68 66 65 67 71 74 76 77 78 78 78 78 74 71 68 68 69 70 70 68 68 69 71 71 70 69 68 66 65 63 62 62 62 62 64 65 67 68 69 69 68 67 66 64 62 60 57 54 52 50 49 48 48 47 46 46 46 46 46 46 46 46 46 46 48 49 50 52 54 56 57
72 72 70 67 66 67 69 70 70 71 72 72 73 72 69 66 65 64 68 72 74 76 77 77 78 78 78 76 74 72 72 74 74 74 71 69 69 69 69 69 68 66 64 63 62 61 60 60 61 62 64 65 67 68 68 68 68 66 66 63 60 58 55 52 50 48 47 45 44 43 42 41 41 41 41 42 42 43 43 44 45 46 47 49 50 52
70 71 70 68 66 66 68 69 70 70 71 72 72 72 70 66 64 64 67 71 74 75 76 76 77 78 78 78 78 77 77 78 78 77 75 72 70 68 67 67 66 65 63 62 61 60 60 60 60 62 63 65 66 67 68 68 67 66 66 64 62 60 57 54 52 49 47 45 43 41 39 38 37 37 36 36 37 38 38 40 40 42 43 44 46 47
70 70 69 68 66 65 65 67 68 69 70 70 71 72 71 68 65 64 66 70 73 74 76 76 76 77 78 78 79 79 79 80 79 79 78 75 71 68 66 66 66 64 63 62 61 60 59 60 60 62 64 66 66 67 68 68 68 67 66 66 64 62 60 57 54 51 48 45 43 40 38 37 36 36 34 34 34 35 37 38 38 39 40 42 43 45
68 68 68 68 67 64 62 63 66 68 69 70 71 71 72 70 68 66 66 70 72 74 75 76 76 77 78 78 78 78 79 79 79 79 79 76 72 68 66 66 66 65 64 62 60 59 58 59 60 62 63 65 66 68 69 69 69 69 69 68 67 66 63 60 57 53 50 47 44 42 39 38 36 36 35 35 36 37 39 38 38 38 39 40 42 44
67 68 68 68 67 66 62 60 60 62 66 68 70 70 70 70 69 67 66 68 71 72 74 74 76 76 77 78 78 78 78 79 79 79 79 77 74 70 66 66 66 66 66 64 61 60 58 60 61 62 63 64 66 68 70 70 70 71 71 70 69 67 65 62 58 55 52 49 46 43 40 38 38 37 37 38 39 40 40 40 40 40 40 40 42 43
63 63 64 65 65 64 62 58 55 55 59 64 68 69 69 70 69 68 66 68 69 71 72 74 74 75 76 77 77 78 78 78 78 78 79 78 76 74 72 68 67 66 66 66 64 62 61 59 59 62 70 70 70 70 71 74 74 74 73 72 70 68 66 63 60 58 56 53 50 47 44 42 42 41 41 42 42 43 44 44 44 44 44 44 45 46
56 55 56 58 58 58 57 53 50 48 49 54 61 66 69 69 68 68 67 66 68 70 72 72 73 74 75 76 76 77 78 78 78 78 79 78 78 77 78 76 72 68 66 65 65 64 64 58 60 63 65 72 75 75 74 73 74 74 76 76 76 76 74 73 72 71 68 65 62 59 56 54 52 51 51 50 50 51 51 51 52 52 53 54 54 56
49 47 47 49 50 50 50 46 44 42 42 45 50 58 64 66 67 67 66 66 67 68 70 70 72 73 74 74 74 76 76 78 78 78 78 79 78 76 75 77 75 72 67 64 62 63 64 61 62 67 74 75 76 77 78 76 74 76 78 78 79 80 80 80 80 79 78 74 74 74 73 72 70 68 67 66 65 65 66 66 66 66 67 68 68 70
44 41 40 40 42 43 42 39 37 36 37 39 42 46 53 59 63 65 65 65 66 67 68 68 69 70 71 72 73 74 75 76 77 78 78 79 79 78 77 77 78 77 75 70 66 64 63 62 62 64 66 70 72 74 76 77 78 78 78 78 78 80 80 81 81 80 80 78 78 78 79 80 80 80 80 79 79 80 79 79 80 79 78 78 78 79
42 38 35 34 35 36 37 34 31 30 31 32 35 38 43 49 54 59 62 63 64 65 66 66 67 68 69 70 71 72 74 76 76 78 78 79 79 79 79 78 78 78 78 78 77 75 72 69 67 65 64 66 67 70 72 73 74 76 77 78 79 79 79 80 81 81 81 81 81 81 82 82 81 81 81 81 82 82 82 82 82 82 82 81 81 80
42 38 34 32 31 32 34 32 28 26 24 25 26 30 34 39 45 51 56 59 62 63 64 64 65 65 66 67 68 70 72 74 75 76 78 78 78 79 79 79 78 78 78 78 78 78 78 77 76 73 70 68 67 68 69 69 70 70 73 78 80 80 80 80 81 81 82 82 81 81 82 82 82 81 81 81 81 82 82 82 82 82 82 82 81 80
43 40 37 32 30 30 33 32 29 25 20 19 20 22 24 29 35 42 48 53 57 60 62 62 63 63 64 64 66 68 70 72 73 75 76 78 78 78 78 79 79 78 78 78 78 79 79 79 78 77 74 71 68 66 66 66 66 68 70 76 78 80 80 80 80 81 81 81 81 81 81 81 81 82 81 81 82 82 81 81 82 82 82 82 82 81
44 42 40 35 31 30 32 32 31 27 23 24 28 29 24 20 23 29 37 45 51 56 59 60 61 61 61 61 63 65 68 70 72 74 75 76 78 78 78 79 79 78 78 78 78 79 79 79 78 77 75 72 69 67 66 66 67 68 68 70 73 76 79 80 80 81 81 81 81 81 81 80 81 81 81 81 81 81 81 81 82 82 82 82 82 82
45 42 41 37 33 30 30 32 32 31 31 42 54 58 48 29 18 16 24 32 42 49 55 57 59 59 59 59 60 62 66 69 71 73 73 75 77 78 78 78 78 78 78 78 78 78 78 78 78 77 76 74 73 72 72 72 72 70 68 66 66 69 74 77 79 80 80 80 80 80 80 80 80 80 80 80 80 80 80 81 81 81 81 81 82 81
Wind_Speed
88 92 93 90 86 83 84 86 87 86 84 84 84 84 84 83 83 83 83 83 83 83 82 82 82 83 83 83 84 84 84 83 81 78 76 76 76 76 76 76 76 75 75 74 73 72 71 71 69 68 67 67 66 66 65 65 64 64 64 61 58 56 55 53 52 50 49 48 48 49 49 49 49 49 49 50 50 50 51 51 52 53 54 56 58 59
85 90 92 91 87 84 83 84 85 85 84 83 84 84 84 83 82 82 83 84 84 83 82 82 82 82 82 83 84 84 85 84 83 79 76 76 76 77 77 77 77 76 76 75 74 73 72 72 71 70 68 67 67 66 66 65 64 64 63 61 59 57 55 54 51 49 48 46 46 47 47 46 47 47 48 48 48 48 48 49 50 50 52 53 55 57
82 87 90 91 89 85 82 82 83 83 83 82 83 84 84 83 81 81 82 84 85 84 83 82 82 82 82 82 83 84 84 84 83 80 77 75 75 76 77 77 77 77 77 76 75 74 73 72 72 71 70 69 67 67 66 66 65 64 63 61 59 58 56 54 50 47 45 44 45 45 45 45 45 46 46 47 47 46 46 47 48 48 49 51 52 55
80 84 89 91 90 87 83 81 81 82 81 80 80 82 84 83 82 80 81 83 85 85 84 83 82 82 82 82 82 83 83 83 83 81 78 75 74 74 76 77 78 78 77 76 76 75 74 73 72 72 71 70 69 68 67 66 66 65 63 61 59 58 58 55 52 48 45 45 46 46 45 45 45 45 45 46 46 47 48 49 49 49 49 50 50 52
77 82 87 90 90 88 84 81 81 80 79 75 74 77 81 83 82 81 81 82 84 84 83 83 83 83 82 81 82 82 82 82 82 81 79 76 73 73 75 77 78 78 78 77 76 75 74 73 73 72 71 70 70 69 68 67 67 66 64 61 59 59 59 57 55 53 52 51 50 49 47 46 45 45 45 46 47 48 50 51 51 50 50 50 51 52
76 80 85 89 90 89 85 81 80 79 77 72 70 72 76 80 81 81 82 83 83 83 82 83 83 83 83 82 82 81 81 80 81 81 80 77 74 73 74 76 77 78 78 77 76 75 74 74 73 72 71 71 70 69 69 68 68 66 64 62 60 60 60 58 58 58 58 58 56 53 51 49 47 46 45 45 46 48 51 52 52 51 51 51 51 52
74 78 82 86 89 90 86 82 80 79 77 72 69 70 74 77 78 79 81 85 85 84 83 83 83 83 83 83 82 81 80 79 79 80 80 78 75 74 74 76 77 78 78 77 76 75 74 74 73 72 71 71 70 70 69 69 68 67 65 64 63 62 61 59 58 58 59 59 58 56 54 51 49 47 46 45 45 47 50 51 52 52 51 51 51 52
72 76 80 84 88 90 87 83 81 80 78 73 70 71 76 78 79 78 78 82 85 86 85 83 83 83 83 83 82 81 80 79 78 78 77 77 75 74 74 76 77 78 78 77 76 75 74 73 73 72 71 70 70 70 69 69 68 68 67 66 66 65 63 60 59 58 58 58 57 57 55 53 51 49 47 46 45 46 47 49 51 52 52 51 51 52
70 74 78 83 87 89 88 85 83 82 81 76 71 71 77 81 82 79 76 77 81 85 85 84 82 82 82 82 82 81 81 80 78 76 75 75 74 73 74 75 77 78 78 77 76 75 74 73 72 72 71 70 70 70 69 69 69 69 68 68 68 67 65 63 61 59 58 58 57 57 56 55 53 51 49 47 46 45 45 47 48 50 52 52 52 52
68 73 77 82 87 90 90 87 85 84 84 80 74 72 76 82 84 82 78 77 79 83 84 84 83 82 81 81 81 82 82 80 78 75 74 73 72 72 73 75 77 78 78 78 77 75 74 73 72 72 71 70 70 69 69 70 70 69 69 69 68 68 67 65 64 63 61 60 59 58 58 56 55 53 52 50 47 45 44 44 46 48 50 52 53 54
66 71 76 80 85 89 91 89 87 86 86 84 78 73 74 81 85 84 82 80 80 81 83 84 84 84 82 82 82 82 81 80 78 76 74 72 70 70 71 74 76 78 79 78 77 76 75 74 73 72 71 70 70 69 70 70 70 70 69 69 68 68 67 67 66 65 64 63 62 60 59 57 56 55 55 53 50 47 44 43 44 46 48 50 52 54
62 69 74 79 84 88 91 91 89 88 88 87 83 76 71 77 83 85 84 83 82 82 82 84 86 86 84 83 82 82 81 80 79 77 75 72 70 69 70 72 75 77 79 79 78 77 76 75 74 72 71 70 70 69 70 70 70 70 70 69 68 68 67 67 67 66 66 65 63 62 61 59 58 57 57 56 54 52 48 45 44 45 47 49 50 52
58 65 72 78 83 88 91 92 91 89 90 90 88 81 73 73 78 83 84 84 84 83 84 84 85 85 84 83 82 81 80 80 79 78 76 73 71 69 69 71 73 76 78 79 79 78 77 76 74 73 72 70 69 69 69 69 70 70 70 69 68 67 67 67 67 66 66 65 64 63 62 61 61 60 59 58 57 55 53 50 47 46 46 47 48 50
53 60 68 75 81 87 91 93 93 92 92 93 92 87 79 73 74 79 83 83 83 83 84 84 83 83 83 82 81 81 80 80 80 79 77 75 72 70 68 69 72 74 77 78 79 78 78 77 75 74 72 71 69 68 68 68 69 70 70 70 69 68 67 67 66 66 65 64 64 63 63 63 62 62 61 59 58 57 56 54 51 49 47 47 47 48
49 55 63 72 79 85 90 94 95 95 95 96 94 90 83 74 72 75 80 82 82 82 82 82 82 81 81 81 80 80 80 80 80 80 78 77 74 71 69 69 70 73 75 77 78 78 78 77 76 74 73 71 68 67 66 67 69 70 70 70 69 68 68 67 66 66 65 64 63 63 62 62 62 62 62 61 59 58 57 56 54 52 50 48 48 48
47 51 59 68 76 84 89 94 96 97 97 98 95 91 85 76 72 73 77 80 81 80 80 80 80 80 80 79 79 79 79 80 80 80 80 78 76 74 71 70 70 72 74 76 77 78 78 77 76 74 73 70 68 66 66 66 68 69 70 69 69 69 68 68 67 66 65 64 63 62 62 61 62 62 62 61 60 59 58 57 56 55 53 51 50 49
46 49 54 63 72 81 88 93 96 98 98 99 97 93 88 81 75 73 75 77 78 78 78 78 78 78 78 78 78 78 79 79 80 80 80 79 78 76 74 72 71 72 73 75 76 77 77 76 75 74 72 70 68 66 65 66 67 68 69 69 69 68 68 68 67 67 66 65 64 63 62 61 61 61 61 60 60 59 58 58 57 56 54 53 52 51
46 47 51 58 67 77 85 91 96 98 99 99 99 97 92 85 78 73 73 74 75 75 76 77 77 77 78 78 78 78 78 78 78 79 78 78 78 77 76 74 73 72 73 74 76 77 76 76 75 73 72 70 68 66 66 66 66 68 69 69 69 68 68 67 67 67 66 66 65 64 63 62 62 61 60 60 60 59 59 58 57 56 55 54 53 52
46 46 49 54 63 72 81 89 95 98 99 100 100 100 96 89 82 75 72 72 72 72 73 74 76 77 77 77 78 78 78 77 77 77 77 77 77 77 76 75 74 73 73 74 75 76 76 76 75 73 72 70 69 68 67 67 67 67 68 69 69 68 68 67 67 67 67 66 66 65 64 63 62 61 60 60 60 60 59 58 57 56 55 54 54 53
45 46 47 52 59 68 78 87 94 98 100 101 102 101 99 94 86 79 74 72 69 67 68 72 75 76 76 76 76 77 77 76 76 76 76 76 76 76 76 76 75 74 74 74 75 76 76 76 75 73 72 71 70 69 69 68 68 68 68 69 69 69 68 68 67 67 67 66 65 64 63 62 61 60 59 60 60 60 59 58 56 55 54 53 53 52
44 45 47 50 56 64 74 83 91 97 101 102 102 102 101 97 91 85 78 74 68 63 64 70 75 77 76 75 74 75 75 76 76 76 76 75 75 75 75 75 75 74 74 74 75 75 76 76 75 74 73 72 71 71 71 70 70 69 69 70 70 69 69 69 69 68 67 66 65 64 62 61 59 59 59 59 59 58 57 57 56 55 54 53 52 52
43 44 46 49 54 62 71 80 89 96 100 102 103 103 103 100 96 91 86 81 73 66 64 69 75 78 76 74 73 73 73 74 75 75 75 74 74 74 75 75 74 74 74 74 74 75 76 76 75 75 74 73 73 73 73 72 72 71 71 71 71 70 70 70 71 70 69 67 66 65 63 62 60 60 59 59 58 57 57 56 55 54 54 53 53 53
42 43 45 48 52 59 68 76 85 93 99 102 103 104 105 104 101 97 93 88 79 70 67 71 76 78 77 75 72 71 70 71 72 73 73 72 73 74 74 74 73 73 73 73 73 74 75 75 75 75 74 73 73 73 73 73 73 73 73 73 72 71 71 71 72 72 71 69 68 66 65 64 63 62 61 60 59 58 57 56 54 54 54 53 54 53
41 42 44 47 51 57 64 72 81 89 96 101 104 106 107 106 104 102 99 93 82 72 69 71 75 77 77 76 73 70 68 68 68 69 69 71 72 73 73 72 72 72 72 72 72 73 73 74 75 75 74 73 72 71 70 71 72 73 73 73 73 72 72 72 73 73 72 71 70 69 67 66 65 64 63 62 61 60 59 57 56 56 55 54 54 54
40 41 43 46 49 54 61 69 77 85 93 99 103 106 107 108 107 105 102 95 84 75 71 72 74 76 77 77 75 72 69 66 65 65 66 68 70 71 72 72 72 71 71 71 71 71 72 73 73 74 73 72 71 69 68 68 69 70 71 72 72 73 73 73 74 74 73 72 71 70 69 68 66 65 64 63 62 61 61 60 59 58 57 56 55 55
39 40 42 44 47 51 57 64 72 81 88 95 101 104 107 108 108 107 103 96 87 79 75 75 76 77 78 77 75 73 71 68 65 64 64 65 65 67 69 71 71 71 71 71 70 70 71 71 72 72 72 71 70 69 68 67 67 67 68 69 70 71 72 73 74 74 73 73 72 71 70 69 67 66 65 63 63 62 62 61 61 60 59 58 57 56
38 39 41 43 45 49 54 60 67 75 83 90 97 102 105 107 108 107 104 98 92 85 81 79 78 78 77 74 73 72 71 70 69 67 65 64 63 64 65 68 69 69 70 70 70 70 70 70 70 70 70 70 69 68 67 66 66 66 66 66 68 69 70 71 72 72 72 72 71 70 70 69 68 66 65 64 63 62 62 62 61 61 60 60 59 57
37 38 40 42 44 47 51 56 62 69 77 84 91 97 102 105 106 106 105 101 96 90 85 82 80 78 75 73 70 69 69 71 72 71 69 66 64 63 63 64 65 66 67 68 69 70 69 69 69 69 69 69 68 67 66 65 65 65 65 65 66 66 67 67 68 69 69 69 69 68 68 67 66 65 64 64 63 62 62 62 61 61 61 60 59 58
36 37 39 41 43 46 49 53 58 64 72 79 85 91 97 100 103 104 105 102 98 92 88 85 81 78 73 70 68 66 67 70 74 76 74 71 68 65 63 62 62 63 64 65 66 67 67 68 68 68 68 67 67 65 65 64 64 64 64 64 64 65 65 65 65 65 66 66 66 66 66 65 65 64 63 63 63 62 62 62 61 61 60 60 59 58
34 36 37 40 42 45 47 50 55 60 66 73 79 85 90 95 99 102 103 101 97 93 90 86 81 76 70 65 61 60 62 68 74 77 76 74 72 69 66 63 62 62 62 62 63 64 65 66 67 67 67 66 65 64 63 63 63 63 63 63 63 63 63 63 63 63 63 63 63 63 63 63 63 63 62 62 62 61 61 61 60 60 60 59 59 58
33 34 36 38 41 43 46 49 52 57 62 67 73 78 83 89 94 97 98 98 96 94 90 85 79 73 67 63 59 58 61 67 74 77 76 76 75 73 68 65 64 63 62 61 61 62 63 64 65 65 65 65 64 63 63 62 62 61 61 61 61 62 62 61 61 61 61 61 61 61 61 61 61 61 61 61 61 60 60 59 59 59 59 58 58 58
31 33 35 37 39 42 45 47 50 54 58 62 67 71 76 82 87 91 93 94 95 93 89 83 77 72 69 65 62 61 63 66 70 72 73 74 75 73 69 67 66 64 63 62 62 62 62 62 63 63 64 64 64 63 63 62 62 61 61 60 60 60 60 60 60 60 60 60 60 60 60 60 60 60 60 59 59 59 59 58 58 58 57 57 57 56
30 32 33 35 38 40 43 46 49 52 55 59 62 65 69 76 81 85 89 92 93 91 87 81 76 73 70 66 63 63 64 65 65 67 70 72 72 71 69 68 67 66 65 64 63 63 62 61 61 62 62 63 63 63 63 63 62 62 61 60 60 60 60 59 59 59 59 59 59 59 59 59 59 59 59 59 59 59 58 58 57 57 57 56 56 55
30 31 32 34 36 39 42 46 48 51 54 57 59 60 62 69 76 81 84 87 89 89 86 81 76 72 68 64 63 64 65 66 67 69 71 72 71 71 70 69 68 67 67 66 65 64 63 62 61 61 61 61 62 62 63 63 63 62 62 61 61 60 60 59 59 59 59 59 59 59 59 59 60 59 59 59 59 59 59 58 58 58 58 57 56 55
30 31 32 34 36 38 42 45 48 51 54 56 57 57 58 64 71 77 80 83 85 86 85 82 76 70 65 62 62 64 66 68 70 71 72 72 72 71 70 70 69 68 67 67 66 65 64 63 62 61 60 60 60 61 62 62 62 62 62 62 61 61 60 59 59 59 59 59 59 59 59 60 60 60 60 61 61 60 60 60 60 60 59 58 57 56
30 31 32 33 35 38 41 45 48 51 54 56 56 55 55 61 68 73 77 80 82 84 84 82 77 71 65 63 64 65 67 68 69 70 72 72 72 71 69 69 69 68 67 67 67 66 65 64 63 61 60 59 59 59 60 61 61 61 61 61 61 61 60 60 59 59 59 59 59 59 59 60 60 60 61 61 61 61 61 61 61 61 60 60 59 58
30 31 32 33 35 38 41 44 47 51 55 57 56 55 55 60 66 70 74 77 79 80 81 81 79 75 70 68 68 68 68 68 68 68 70 72 72 71 69 69 68 68 66 66 66 66 65 64 62 61 60 59 58 58 58 59 59 60 60 61 61 61 60 60 59 59 59 59 59 59 59 60 60 60 60 61 61 61 61 61 61 61 60 60 59 59
30 31 32 34 35 38 41 43 46 50 54 56 56 56 57 61 65 68 71 73 75 77 77 77 77 75 73 71 70 70 69 68 67 67 69 71 71 71 70 69 67 67 66 65 65 64 63 62 61 60 59 58 58 57 57 57 57 58 59 60 60 60 59 59 59 59 59 59 59 59 59 59 59 59 59 60 60 60 59 60 60 60 59 59 59 59
30 31 32 33 35 38 40 43 45 48 52 55 56 56 57 60 64 66 68 70 72 73 73 73 72 71 70 69 69 69 69 68 67 66 67 69 70 70 70 68 67 66 65 64 63 62 61 60 59 58 57 56 56 56 56 55 56 56 57 58 58 59 59 59 59 59 59 59 59 59 59 59 59 59 59 59 58 58 58 59 59 59 59 59 59 58
30 31 32 33 34 36 39 41 44 46 49 52 53 54 56 58 61 63 65 67 68 69 70 69 68 68 67 66 66 67 67 67 66 64 63 64 67 68 68 67 66 65 64 63 62 61 59 58 57 56 55 54 54 54 54 55 55 56 56 56 57 58 58 58 58 58 59 59 59 59 59 59 59 59 59 58 58 58 58 58 58 59 59 58 58 57
29 30 31 32 33 35 37 39 41 44 46 49 50 52 53 55 58 61 63 64 65 65 66 66 65 65 64 64 64 65 65 65 64 62 59 59 62 64 66 66 65 64 63 62 61 60 59 57 55 54 53 53 52 52 53 53 54 55 55 55 55 56 56 56 57 57 58 58 59 59 59 59 59 59 59 59 59 59 59 59 59 59 59 58 58 57
29 30 30 31 32 34 35 37 39 41 44 46 48 50 52 54 56 59 60 62 62 63 63 63 63 63 63 63 63 64 64 64 62 60 56 54 55 57 60 62 63 63 62 62 61 60 58 55 53 52 52 51 51 51 51 52 52 52 53 53 53 53 53 53 54 55 56 57 58 59 59 59 60 60 60 60 60 60 60 60 59 59 59 58 58 58
28 29 30 31 32 33 34 35 37 39 41 44 46 49 51 53 55 57 59 60 61 62 62 62 62 62 62 62 62 63 63 62 61 58 55 51 47 46 50 53 57 59 59 60 59 59 57 55 53 51 50 49 49 48 48 49 49 49 49 49 49 49 49 51 53 54 56 57 58 59 60 60 61 61 61 61 60 60 60 60 59 59 59 58 57 57
28 29 30 31 32 32 33 34 35 37 39 41 44 47 49 52 54 56 58 59 60 60 61 61 61 61 61 61 61 61 61 61 59 57 55 51 47 45 45 46 49 52 54 56 57 57 57 57 56 55 55 52 49 48 47 47 47 46 45 45 45 46 48 51 53 54 56 58 59 61 61 62 62 61 61 60 60 60 59 59 58 58 57 56 55 54
29 29 30 31 31 32 32 33 34 36 37 39 41 44 47 50 52 54 56 58 59 59 60 60 60 60 60 61 61 61 61 60 59 58 56 55 52 50 49 48 47 47 49 52 55 57 58 59 60 59 58 55 53 51 49 49 48 46 42 42 43 46 50 53 54 55 56 57 58 59 60 60 60 59 59 58 58 57 56 56 55 55 54 53 52 50
29 29 30 30 31 31 32 32 33 34 36 37 39 42 44 47 50 53 55 57 58 59 59 60 60 60 60 60 61 61 61 61 61 60 59 58 57 55 53 52 51 50 50 52 54 57 59 61 63 64 62 60 58 55 53 51 50 48 44 43 45 48 53 55 56 55 55 55 55 55 54 54 53 53 53 53 52 51 51 51 51 51 51 51 50 48
29 29 30 30 31 31 31 31 32 33 34 36 38 40 42 45 48 50 53 55 57 58 59 60 60 60 60 61 61 61 62 63 63 62 61 61 60 59 57 56 56 55 54 53 53 55 58 61 63 64 64 63 61 59 57 54 53 51 50 48 47 49 52 54 55 56 56 56 56 55 54 51 50 50 49 49 48 48 48 48 48 49 49 49 49 49
29 29 29 30 30 30 30 31 31 32 33 35 36 38 40 43 46 48 51 54 56 58 59 59 60 60 61 61 61 62 63 64 64 64 63 63 62 62 62 61 60 58 56 54 53 54 55 57 60 62 63 63 62 61 59 57 56 56 56 54 52 50 51 52 53 54 54 55 55 55 55 54 53 52 51 51 51 51 51 51 50 50 50 50 50 51
30 30 30 30 30 30 30 30 31 31 32 33 34 36 38 41 43 46 49 52 55 57 58 59 60 61 61 61 62 62 64 65 65 65 64 64 64 64 64 64 64 62 58 55 54 53 53 54 56 58 60 62 62 61 60 59 59 60 60 60 58 56 54 53 52 52 53 53 54 54 54 55 54 54 54 54 54 55 55 55 54 54 53 53 52 52
31 30 30 30 30 30 30 30 30 31 32 32 32 33 35 38 41 44 47 50 53 56 58 59 60 61 62 62 62 63 64 66 66 66 66 65 65 64 63 64 64 62 59 57 55 54 53 54 54 55 58 60 61 61 60 61 62 63 64 64 64 62 60 57 54 53 52 53 54 54 54 54 55 55 55 55 56 56 57 57 57 57 56 56 55 54
31 31 31 30 30 30 31 31 31 31 32 32 31 30 31 33 36 40 44 47 50 54 56 59 60 61 62 63 64 64 66 67 68 68 68 67 66 65 62 61 61 59 57 55 53 53 53 54 54 55 56 58 59 60 61 62 64 65 66 68 68 68 66 63 60 57 55 54 54 54 55 55 55 55 55 55 56 57 57 57 57 58 58 57 57 56
Wind_Direction
215 214 214 214 214 214 214 214 214 214 215 216 217 218 219 219 219 219 220 220 219 219 218 218 218 218 217 217 217 217 218 219 221 222 223 223 222 221 221 221 221 222 222 223 223 223 224 224 224 224 224 224 224 225 225 226 227 228 230 231 231 231 232 232 234 235 236 236 234 233 232 231 231 231 230 230 231 231 232 233 232 232 231 231 231 231
214 214 213 213 213 213 213 213 213 213 214 215 216 217 218 218 219 219 220 219 219 219 218 218 218 218 218 217 217 217 218 219 220 222 223 223 222 221 221 220 221 221 222 222 223 223 223 224 224 224 224 224 224 224 225 226 227 228 229 230 231 231 231 232 233 234 235 233 231 230 230 231 231 231 231 230 230 230 232 233 233 232 231 231 231 231
214 213 212 212 212 212 212 212 212 212 212 214 216 217 217 217 218 218 219 219 219 219 218 218 218 218 218 218 218 218 218 219 220 221 223 223 222 221 221 220 220 221 221 222 222 223 223 223 223 224 224 224 224 224 225 226 227 228 229 230 230 231 231 231 231 231 230 228 227 227 228 229 230 230 230 228 226 226 229 231 233 233 232 231 231 231
213 212 212 212 211 211 211 211 211 210 211 213 216 218 218 217 217 217 218 218 218 218 218 219 218 218 218 218 218 218 218 219 220 221 222 223 222 221 221 220 220 221 221 222 222 222 222 223 223 223 224 224 224 224 225 225 226 227 228 229 230 230 230 229 228 226 224 225 226 227 228 229 229 230 229 226 223 221 222 224 227 229 230 231 231 231
213 212 211 211 211 210 210 210 209 209 208 210 213 217 218 218 217 217 217 217 217 218 218 218 218 218 218 218 218 218 219 219 220 221 222 222 222 222 221 220 220 221 221 222 222 222 222 222 222 223 223 223 224 224 224 225 225 226 227 228 229 230 229 228 226 224 224 226 227 228 229 229 230 230 229 227 223 220 218 218 220 222 225 228 230 230
212 211 211 210 210 209 209 209 208 207 206 206 208 213 216 217 216 216 217 217 217 216 216 217 218 218 218 218 218 218 218 219 220 220 221 222 222 222 221 220 220 221 221 221 222 222 222 222 222 222 223 223 223 223 224 224 225 225 226 227 228 229 229 228 226 225 226 228 229 230 230 230 230 231 230 229 226 222 219 218 218 219 221 224 226 228
212 211 210 209 209 209 208 207 206 205 203 202 203 206 209 211 212 212 214 216 216 216 216 217 217 218 218 217 217 217 217 218 219 220 220 221 222 222 221 220 220 220 221 221 221 222 222 222 222 222 222 223 223 223 224 224 224 225 225 226 226 227 228 227 226 226 227 228 229 230 230 230 230 230 230 230 229 226 223 221 220 220 221 221 223 225
212 211 210 209 208 208 208 207 205 203 201 199 199 200 201 203 204 205 208 212 215 216 216 216 217 217 218 217 217 217 217 218 219 219 220 220 221 221 221 220 219 220 220 220 221 221 221 222 222 222 222 223 223 223 224 224 224 224 225 225 225 226 227 227 227 227 227 228 229 229 229 230 230 230 230 230 230 228 226 225 224 224 224 224 224 225
211 210 209 208 208 207 207 206 204 203 200 198 197 196 196 197 198 198 200 206 212 215 215 215 216 217 218 217 217 217 217 217 218 218 219 220 220 220 220 219 218 218 219 219 220 220 221 221 221 222 222 223 223 224 224 224 224 224 225 225 226 227 227 228 228 228 229 229 229 229 230 230 230 230 230 230 230 230 229 227 227 227 227 227 227 227
211 210 209 208 207 207 206 205 204 202 200 198 197 196 193 193 193 194 195 199 206 211 213 214 215 216 217 217 217 217 217 217 217 217 218 218 219 219 219 218 217 217 218 218 219 219 220 220 221 221 222 223 224 224 225 225 225 225 225 226 226 227 228 229 230 230 230 230 230 230 230 231 231 231 231 230 230 230 230 229 229 229 228 229 229 229
210 210 209 208 207 206 205 204 203 201 199 198 198 198 194 192 192 194 195 198 202 207 210 212 213 214 215 216 217 217 217 217 217 217 217 218 218 218 218 217 217 217 217 217 218 218 219 219 220 221 222 223 224 225 225 225 225 225 225 226 226 227 228 230 231 231 232 232 233 233 233 233 233 233 232 232 232 232 231 230 230 230 230 230 230 230
210 210 209 208 207 206 205 204 203 201 199 198 199 200 197 193 192 194 197 199 201 204 207 210 211 213 214 215 215 216 217 217 217 217 217 217 217 217 217 216 216 216 216 217 217 218 218 219 219 220 221 222 224 225 226 226 225 225 225 225 226 227 228 229 231 232 232 233 234 235 235 235 235 233 233 233 233 233 232 231 231 231 231 231 231 231
210 210 209 208 207 206 205 204 203 201 199 199 200 201 200 195 192 193 196 198 200 202 205 208 211 212 213 214 215 216 216 217 217 217 217 217 216 216 216 215 215 216 216 216 217 217 218 218 219 220 221 222 224 225 226 226 225 225 225 225 225 226 227 229 230 231 232 234 235 235 236 236 235 234 234 234 234 234 234 233 233 233 233 233 233 233
210 210 209 209 207 206 205 204 202 201 199 199 201 202 202 197 192 191 193 196 199 201 204 206 209 211 213 214 215 215 216 216 216 216 216 216 216 215 215 215 215 215 216 216 217 217 218 218 219 220 221 222 224 225 226 225 225 225 225 225 225 226 227 228 230 231 232 233 234 235 236 236 235 235 236 236 235 235 235 235 235 235 235 234 234 234
212 211 210 209 208 207 206 204 203 201 200 200 201 203 203 199 193 189 190 193 196 199 202 204 207 209 211 212 214 215 215 216 216 216 216 215 215 215 214 214 214 215 215 216 216 217 217 218 219 220 221 222 223 225 225 225 225 224 224 224 225 225 227 228 230 231 232 233 234 235 235 235 235 236 236 236 237 236 236 236 236 236 235 235 235 235
215 213 211 210 209 207 206 205 203 202 201 201 202 203 203 201 195 190 188 190 193 196 198 201 204 206 209 211 212 213 214 214 215 215 215 215 215 215 215 214 214 215 215 215 216 216 217 218 219 220 221 222 223 224 225 225 225 224 224 224 225 225 226 228 230 231 232 233 234 234 235 235 235 236 236 237 237 237 237 237 236 236 236 236 236 237
218 216 214 212 210 208 207 205 204 203 202 202 202 203 204 203 198 192 188 188 190 193 195 198 201 203 206 208 210 211 212 213 214 214 215 215 215 215 215 215 214 214 214 214 215 216 216 217 218 220 221 222 223 224 224 225 224 224 224 224 225 225 226 227 229 231 233 234 234 235 235 235 235 236 237 237 238 237 237 237 237 236 236 236 237 238
222 220 217 214 211 209 208 206 205 203 202 202 203 204 204 204 201 196 190 188 188 190 193 197 199 202 203 205 207 210 211 212 213 213 214 214 215 215 215 215 214 214 214 214 214 215 215 216 218 219 220 222 223 223 224 224 224 224 224 224 225 226 226 227 229 231 233 234 234 235 235 235 235 236 236 237 237 237 237 238 237 237 237 238 238 239
225 223 220 216 213 210 208 207 205 204 203 202 203 204 205 205 203 199 194 189 188 189 192 195 197 200 202 203 205 208 209 211 212 213 213 214 214 215 215 214 214 214 214 214 214 214 214 215 217 218 219 221 222 223 224 224 224 224 224 224 225 226 226 227 229 230 231 233 233 234 234 234 234 234 235 236 237 237 238 238 238 238 238 239 239 240
227 226 223 218 214 211 209 207 206 204 203 203 203 204 205 205 204 202 197 193 192 194 197 197 197 198 200 202 203 205 207 209 210 211 212 213 213 214 214 214 214 214 213 213 213 213 214 214 215 216 218 220 221 223 223 224 224 223 224 224 225 225 226 227 228 229 230 231 231 232 232 232 233 233 234 235 236 237 238 238 239 239 239 239 240 241
228 227 225 220 216 212 209 208 206 205 204 203 203 204 205 205 205 204 201 200 202 205 206 203 199 197 198 199 200 201 203 205 207 209 210 211 212 213 214 214 213 213 213 213 213 213 213 214 214 215 216 218 219 221 223 223 223 223 223 224 224 225 226 226 228 229 230 230 231 231 232 232 233 233 234 234 236 237 237 238 238 239 239 240 241 242
228 228 226 222 217 213 210 208 207 205 204 203 203 203 205 206 206 206 205 206 209 212 212 207 202 198 197 197 198 198 200 202 205 207 208 209 210 211 213 213 213 213 213 213 213 213 213 213 214 214 215 216 217 219 220 221 222 223 223 223 224 225 225 226 227 228 229 230 231 232 233 233 234 234 234 235 236 237 237 238 239 239 240 241 241 242
228 227 226 222 218 213 210 208 207 206 204 203 203 203 204 205 206 207 208 210 212 212 212 208 203 199 198 197 197 197 198 200 202 205 206 207 209 210 212 212 212 212 212 212 212 212 213 213 213 214 215 216 216 217 218 219 220 221 222 223 223 224 225 226 227 228 229 230 231 232 233 233 234 234 235 236 236 237 238 239 239 240 240 241 241 241
226 225 224 222 218 214 211 208 207 206 205 203 203 203 204 205 207 208 210 212 212 211 211 209 205 201 199 198 198 198 198 199 201 203 205 207 208 210 211 211 211 212 212 212 212 212 212 213 213 214 215 216 216 216 217 217 217 219 220 221 222 224 225 226 226 227 229 230 231 231 232 232 233 234 235 236 237 238 239 240 241 241 241 241 241 242
224 223 222 221 218 214 211 208 207 206 205 204 203 203 204 205 207 209 210 212 212 211 211 209 206 203 201 201 201 201 200 201 202 203 205 207 208 210 211 211 212 212 213 212 212 212 212 213 214 214 215 217 217 218 217 217 217 217 218 219 221 223 224 225 226 227 228 229 230 231 231 232 232 233 234 235 237 238 240 241 241 241 242 241 242 242
221 221 220 219 217 214 211 209 207 206 205 204 204 203 204 205 207 209 211 212 211 211 210 209 206 204 204 204 205 205 204 204 204 205 206 207 208 210 211 212 213 213 214 214 214 214 214 215 215 215 216 217 219 219 219 219 219 218 218 219 220 222 223 224 225 226 227 229 230 230 231 231 232 233 234 235 237 238 240 241 241 241 242 242 243 243
218 218 217 216 215 213 211 209 208 206 205 205 204 204 204 205 207 209 211 212 212 211 210 208 207 207 208 208 209 209 208 208 208 208 208 209 209 210 210 211 213 214 215 215 215 216 216 216 217 217 218 219 220 220 221 221 221 220 220 220 220 221 222 223 224 225 226 227 228 229 230 231 231 232 233 235 236 238 239 240 241 242 243 243 244 245
215 215 215 214 213 211 210 208 207 206 206 205 204 204 204 205 207 209 210 212 212 212 211 209 209 211 212 214 214 215 214 214 213 212 211 211 211 210 210 211 212 213 214 215 216 216 217 217 218 218 218 219 220 221 222 222 222 222 221 221 221 222 222 223 223 224 225 226 227 228 229 230 231 232 233 234 235 237 238 240 241 242 243 244 245 245
212 212 212 211 211 209 208 207 207 206 206 205 205 204 205 205 206 208 209 210 211 211 211 211 212 213 215 217 219 219 219 219 218 217 215 214 214 213 211 211 211 212 213 214 215 216 217 218 218 218 219 219 220 221 222 222 222 222 222 222 222 223 223 223 224 225 225 226 227 228 229 230 231 232 232 234 235 236 238 239 241 242 243 244 245 246
209 209 209 209 208 208 206 206 205 205 205 205 204 204 205 205 205 206 208 209 210 210 211 211 212 213 214 213 211 211 214 218 220 220 218 217 217 216 214 212 212 212 213 213 214 215 216 217 218 218 219 219 220 220 221 221 222 222 222 222 223 223 224 224 225 225 226 227 227 228 229 230 231 232 233 234 235 236 237 239 240 242 243 244 245 246
207 207 207 207 206 206 205 204 204 204 204 204 204 204 204 205 205 206 206 207 208 208 209 210 210 210 207 202 198 198 205 213 218 219 219 219 219 218 217 215 214 213 213 213 214 215 216 217 218 218 218 219 219 220 220 220 221 221 221 222 223 223 224 224 225 225 226 227 228 228 229 230 231 232 233 233 234 236 237 238 239 241 242 243 244 245
205 205 204 204 204 204 203 202 202 202 202 202 203 203 204 204 205 205 205 206 206 207 207 207 206 204 200 194 191 193 200 208 214 217 218 219 219 219 218 217 216 215 215 215 215 216 216 217 217 218 218 218 219 219 219 220 220 220 221 221 222 223 224 224 225 225 226 226 227 228 229 230 230 231 232 233 234 235 236 237 238 239 240 241 242 243
203 202 202 202 202 202 201 200 200 200 200 200 200 201 203 204 204 204 204 204 204 205 204 204 202 199 195 192 191 194 199 205 210 213 215 217 218 218 218 218 217 217 217 217 216 217 217 218 218 218 218 219 219 219 219 220 220 220 220 221 221 222 223 224 224 225 225 226 227 227 228 229 230 230 231 232 233 233 234 235 236 236 237 238 239 240
201 200 200 200 200 199 199 198 197 197 197 196 197 198 200 202 203 203 203 203 203 203 202 201 199 196 194 193 194 197 201 206 210 213 215 216 217 218 219 219 219 219 218 218 218 218 218 218 219 219 219 219 219 220 220 220 221 221 221 221 221 222 223 223 224 224 225 226 227 227 228 228 229 230 230 231 232 232 233 233 234 234 235 236 237 238
199 198 198 197 197 197 196 196 195 194 193 193 192 194 197 200 201 201 201 201 202 202 201 199 197 196 194 194 196 199 203 208 212 214 215 216 217 218 219 219 219 219 219 220 220 220 220 220 220 220 220 220 220 221 221 221 221 221 221 221 222 222 222 223 223 224 225 225 226 227 228 228 229 229 230 230 231 232 232 232 233 234 234 235 236 237
198 197 196 196 195 195 194 194 193 192 191 190 190 191 195 198 200 200 200 200 200 201 200 199 198 197 197 197 199 202 205 209 211 213 215 215 216 217 217 218 219 219 220 221 221 222 222 222 222 221 221 221 221 221 222 222 222 222 222 222 222 222 222 222 222 223 224 225 226 227 227 228 229 229 230 230 231 232 232 233 233 234 235 235 236 236
197 196 195 194 194 193 193 193 193 192 190 189 189 191 194 197 198 199 199 199 200 200 200 199 199 200 201 203 204 206 208 209 211 212 214 215 215 216 216 217 218 219 220 221 222 222 223 223 223 223 222 222 221 221 222 222 222 222 222 222 222 221 221 222 222 222 223 224 225 226 227 227 228 229 230 230 231 232 232 233 234 235 235 236 236 236
196 195 194 194 193 192 192 193 193 193 192 191 191 192 194 196 197 198 198 198 199 199 200 200 201 202 204 206 208 209 209 209 210 211 213 214 214 215 216 217 218 219 219 220 221 222 223 223 223 223 223 222 222 221 221 221 221 221 221 221 221 221 221 221 222 222 223 223 224 225 226 227 228 229 229 230 231 232 232 233 234 234 235 236 236 237
194 194 194 193 192 192 192 193 193 194 193 192 192 193 194 196 197 197 197 198 198 199 200 200 201 202 203 205 206 207 207 207 208 209 211 212 213 214 215 216 217 218 219 219 220 220 221 222 222 223 223 222 221 221 220 220 220 221 221 221 221 221 221 221 221 222 222 223 224 224 225 226 227 228 229 229 230 231 232 232 233 234 235 235 236 237
193 193 193 193 192 191 192 192 193 194 194 193 193 193 194 194 195 196 196 197 197 198 199 199 200 200 201 202 203 203 203 204 204 205 207 210 212 213 214 214 215 217 217 218 218 219 219 220 221 221 222 222 221 221 220 219 219 220 220 220 220 221 221 221 221 222 222 223 223 224 225 225 226 227 227 228 229 230 231 231 232 233 234 235 236 236
192 191 191 191 191 191 191 192 192 193 193 193 193 192 192 193 194 194 195 196 196 197 198 198 198 199 199 199 200 200 200 200 200 200 202 206 209 211 212 213 214 215 216 217 217 218 218 219 220 220 221 221 221 220 219 218 218 218 218 219 220 221 221 222 222 223 223 224 224 224 225 225 226 226 227 227 228 229 230 230 231 232 233 234 235 235
190 190 190 189 189 189 190 190 191 192 192 192 192 192 192 192 192 193 193 194 194 195 196 196 197 197 197 197 197 197 197 197 196 195 197 200 205 208 210 211 212 213 214 215 216 216 217 217 218 220 220 221 220 219 218 217 217 217 217 218 219 220 221 222 223 224 225 225 225 226 226 226 226 227 227 228 228 229 230 230 231 232 233 233 234 235
189 188 188 187 187 187 188 188 189 190 191 191 192 192 192 191 191 192 192 192 193 194 194 195 195 195 195 195 195 195 194 193 192 191 191 193 196 201 206 209 210 210 211 212 213 213 214 214 215 216 217 218 218 218 217 216 215 215 216 216 217 219 220 222 223 224 225 226 226 227 227 227 227 227 228 228 229 229 230 230 231 232 232 233 234 234
188 188 187 186 186 186 186 187 187 188 189 190 191 191 192 191 191 191 191 191 192 192 193 193 194 194 194 194 194 193 191 190 188 187 186 186 190 197 204 207 208 209 209 210 211 212 212 212 213 213 214 213 213 214 215 215 214 214 214 216 218 222 224 226 226 226 226 226 226 226 226 227 227 227 227 228 228 229 229 230 231 231 232 232 233 234
188 187 186 185 184 184 184 185 186 186 187 188 189 190 190 191 191 190 190 191 191 191 192 192 192 193 193 193 193 191 189 187 184 183 183 184 187 194 202 207 209 209 209 210 211 212 212 213 213 213 212 211 210 210 211 212 212 212 214 219 224 228 229 228 227 227 227 227 227 226 226 226 226 225 226 226 227 227 228 229 229 230 230 230 231 231
188 187 187 185 183 182 183 183 184 184 185 186 187 188 189 189 189 190 190 190 190 190 191 191 192 192 192 193 192 191 188 185 184 183 184 184 185 189 196 203 208 210 211 211 212 212 213 214 215 215 215 214 213 212 211 210 208 208 212 218 223 225 224 222 221 221 221 222 222 222 222 222 221 221 222 222 223 225 226 227 228 229 229 229 228 227
188 188 187 185 183 182 181 182 182 183 183 184 185 186 187 188 188 189 189 189 189 190 190 191 191 192 192 192 192 190 188 186 185 185 185 185 184 186 191 198 203 207 209 210 210 211 212 213 214 215 215 215 215 214 214 212 209 208 209 213 217 218 216 215 214 214 214 214 215 214 214 213 214 215 216 217 217 219 220 222 225 227 228 228 227 226
188 188 187 186 184 181 181 181 181 182 182 183 184 185 186 187 187 188 188 188 189 189 190 190 190 191 192 192 192 191 189 187 186 186 186 186 185 185 188 193 198 201 203 205 207 209 209 210 212 213 213 214 214 214 214 214 212 211 210 212 214 215 214 212 212 212 212 212 212 211 210 209 209 210 211 212 213 214 216 218 220 223 225 227 228 228
189 189 188 187 184 182 181 181 181 181 181 181 182 183 185 186 187 187 187 188 188 189 189 190 190 191 191 191 191 191 190 189 188 187 187 187 187 187 189 191 195 198 200 201 202 203 203 205 208 211 212 213 213 213 214 214 214 213 213 214 215 216 215 214 213 213 212 212 211 211 210 210 210 210 211 212 213 214 215 216 218 220 223 226 227 229
190 190 189 188 186 184 182 182 181 180 179 177 178 181 184 186 187 187 187 187 188 188 189 190 190 190 191 191 191 191 190 189 189 189 189 189 190 190 191 192 194 196 198 199 200 199 199 200 203 207 211 212 213 213 214 214 214 214 214 215 216 217 218 218 217 216 215 215 214 213 212 212 211 211 212 213 214 215 216 217 218 220 221 223 225 227
191 191 191 190 188 185 184 182 181 179 175 172 173 177 182 186 187 187 187 187 188 188 189 190 190 190 191 191 191 191 191 190 190 190 191 191 192 194 195 194 194 195 196 198 198 198 197 197 199 203 208 211 212 213 213 214 215 215 215 216 217 218 219 220 220 220 219 219 218 217 216 215 214 213 213 214 215 216 217 217 218 219 221 222 224 225